Погода в Протасове

Россия / Орловская область     52°40′33″N   37°33′40″E
темп.,
°C
ветер,
м/с
пор.,
м/с
влажн.,
%
обл.,
%
осадки,
мм/ч
давл.,
гПа
погр.,
м
16 апреля, пт
пт1600:00+11юв347699 0.1 101394
03:00+9юв348311 0.1 101476
06:00+8юв348786 0.0 101584
09:00+11юв466795 0.0 1016544
12:00+15юв575088 0.0 10161425
15:00+16ююв683997 0.0 10162227
18:00+14ююз575084 0.0 1016939
21:00+10ююз22655 0.0 101720
17 апреля, сб
сб1700:00+9юв116858 0.0 101811
03:00+8вюв127416 0.0 101812
06:00+7ссв117884 0.0 101812
09:00+9ююв1376100 0.3 1017382
12:00+7ююз4491100 5.0 1018428
15:00+6юз3388100 5.1 1019471
18:00+7ю2380100 0.0 1018582
21:00+6всв228843 0.1 101916
18 апреля, вс
вс1800:00+5вюв369393 0.0 1020107
03:00+5ююв2490100 0.1 1020139
06:00+3ююв239324 0.0 102062
09:00+7ю3579100 0.0 1020626
12:00+9ю3463100 0.1 10201226
15:00+10ю345767 0.1 10201060
18:00+10юв2362100 0.0 1020928
21:00+8юв3376100 0.0 102158
19 апреля, пн
пн1900:00+7вюв3880100 0.0 1020182
03:00+6вюв4880100 0.0 1020180
06:00+6в4881100 0.0 1020204
09:00+9вюв5967100 0.0 1020458
12:00+12вюв6756100 0.0 10191036
15:00+13в6751100 0.0 10181637
18:00+13вюв585699 0.0 10171103
21:00+10в61164100 0.0 1016556
20 апреля, вт
вт2000:00+9в81592100 2.5 1014863
03:00+8в101891100 5.4 1012859
06:00+7в112093100 4.4 1008840
09:00+7в122393100 15.9 10041000
12:00+8вюв122291100 5.9 10021157
15:00+9вюв112094100 10.4 9991097
18:00+11юв10189390 2.9 998781
21:00+11ююв10178344 4.9 999918